^^

..:: Storico WU ::..




Lo storico viene creato da WUnderground con i dati che la stazione Meteomincio invia al loro server. L' aggiornamento viene fatto ogni 5 minuti circa, tuttavia possono esserci intervalli pił ampi a causa di errori, interruzioni di servizio o problemi nell' invio tramite FTP.


Storico stazione MeteoMincio
Giorno Sommario per Settembre 23, 2022 Unità:  Inglese    Metrico   Entrambi
Giorno Settimana Mese Anno
  Max: Min: Media:
Temperatura: 71.6 °F 46.4 °F 59.9 °F
Dew Point: 53.6 °F 44.6 °F 49.5 °F
Umidità: 91% 45% 71%
Velocità vento: 7.5mph 0mph 2.4mph
Raffica: 9.3mph - -
Direzione- - SE
Pressione: 30.2 in 30 in -
Precipitazioni: 0 in    
 
 
Tabulato Dati per Settembre 23, 2022
Ora Temperatura Dew Point Pressione Direzione Velocità vento Raffica Umidità Intensità pioggia (oraria) Info solare Situazione
00:04 55.4 °F 48.2 °F 30.2 in ENE 3.7 mph 5 mph 82% 0 in 0.00 W/m2 unknown
00:09 53.6 °F 48.2 °F 30.2 in ENE 3.1 mph 5 mph 82% 0 in 0.00 W/m2 unknown
00:14 53.6 °F 48.2 °F 30.2 in NE 3.1 mph 3.7 mph 83% 0 in 0.00 W/m2 unknown
00:19 53.6 °F 48.2 °F 30.2 in ENE 2.5 mph 3.7 mph 84% 0 in 0.00 W/m2 unknown
00:24 53.6 °F 48.2 °F 30.2 in ENE 2.5 mph 3.7 mph 84% 0 in 0.00 W/m2 unknown
00:29 53.6 °F 48.2 °F 30.2 in ENE 1.9 mph 3.1 mph 84% 0 in 0.00 W/m2 unknown
00:34 53.6 °F 48.2 °F 30.2 in ENE 1.2 mph 2.5 mph 85% 0 in 0.00 W/m2 unknown
00:39 53.6 °F 48.2 °F 30.2 in ENE 1.2 mph 1.9 mph 85% 0 in 0.00 W/m2 unknown
00:44 53.6 °F 48.2 °F 30.2 in ENE 1.9 mph 2.5 mph 85% 0 in 0.00 W/m2 unknown
00:49 53.6 °F 48.2 °F 30.2 in NE 1.9 mph 2.5 mph 85% 0 in 0.00 W/m2 unknown
00:54 53.6 °F 48.2 °F 30.2 in NE 1.9 mph 2.5 mph 85% 0 in 0.00 W/m2 unknown
00:59 53.6 °F 48.2 °F 30.2 in NE 1.9 mph 2.5 mph 85% 0 in 0.00 W/m2 unknown
01:04 53.6 °F 48.2 °F 30.2 in ENE 1.2 mph 2.5 mph 85% 0 in 0.00 W/m2 unknown
01:09 51.8 °F 48.2 °F 30.2 in ENE 1.2 mph 2.5 mph 85% 0 in 0.00 W/m2 unknown
01:14 51.8 °F 48.2 °F 30.2 in ENE 1.2 mph 2.5 mph 85% 0 in 0.00 W/m2 unknown
01:19 51.8 °F 48.2 °F 30.2 in ENE 1.9 mph 2.5 mph 85% 0 in 0.00 W/m2 unknown
01:24 51.8 °F 48.2 °F 30.2 in NE 1.9 mph 2.5 mph 86% 0 in 0.00 W/m2 unknown
01:29 51.8 °F 48.2 °F 30.2 in NE 1.9 mph 3.7 mph 86% 0 in 0.00 W/m2 unknown
01:34 51.8 °F 48.2 °F 30.2 in ENE 1.9 mph 3.1 mph 86% 0 in 0.00 W/m2 unknown
01:39 51.8 °F 48.2 °F 30.2 in NE 1.9 mph 2.5 mph 86% 0 in 0.00 W/m2 unknown
01:44 51.8 °F 48.2 °F 30.2 in NE 1.9 mph 3.7 mph 86% 0 in 0.00 W/m2 unknown
01:49 51.8 °F 48.2 °F 30.2 in ENE 1.9 mph 3.7 mph 87% 0 in 0.00 W/m2 unknown
01:54 51.8 °F 48.2 °F 30.2 in ENE 1.9 mph 3.1 mph 87% 0 in 0.00 W/m2 unknown
01:59 51.8 °F 48.2 °F 30.2 in ENE 1.9 mph 2.5 mph 88% 0 in 0.00 W/m2 unknown
02:04 51.8 °F 48.2 °F 30.2 in ENE 3.1 mph 5 mph 88% 0 in 0.00 W/m2 unknown
02:09 51.8 °F 48.2 °F 30.2 in East 3.7 mph 6.2 mph 88% 0 in 0.00 W/m2 unknown
02:14 51.8 °F 48.2 °F 30.2 in East 3.7 mph 6.2 mph 88% 0 in 0.00 W/m2 unknown
02:19 51.8 °F 48.2 °F 30.2 in East 4.3 mph 6.2 mph 87% 0 in 0.00 W/m2 unknown
02:24 51.8 °F 48.2 °F 30.2 in East 3.1 mph 6.2 mph 86% 0 in 0.00 W/m2 unknown
02:29 51.8 °F 48.2 °F 30.2 in East 3.1 mph 5 mph 85% 0 in 0.00 W/m2 unknown
02:34 51.8 °F 48.2 °F 30.2 in East 3.1 mph 5 mph 86% 0 in 0.00 W/m2 unknown
02:39 51.8 °F 48.2 °F 30.2 in East 3.1 mph 5 mph 86% 0 in 0.00 W/m2 unknown
02:44 51.8 °F 48.2 °F 30.2 in ENE 3.1 mph 5 mph 86% 0 in 0.00 W/m2 unknown
02:49 51.8 °F 48.2 °F 30.2 in ENE 2.5 mph 5 mph 86% 0 in 0.00 W/m2 unknown
02:54 51.8 °F 48.2 °F 30.2 in ENE 3.1 mph 3.7 mph 86% 0 in 0.00 W/m2 unknown
02:59 51.8 °F 48.2 °F 30.2 in ENE 2.5 mph 3.7 mph 86% 0 in 0.00 W/m2 unknown
03:04 51.8 °F 48.2 °F 30.2 in NE 1.9 mph 3.7 mph 86% 0 in 0.00 W/m2 unknown
03:09 51.8 °F 48.2 °F 30.2 in NNE 1.9 mph 3.1 mph 86% 0 in 0.00 W/m2 unknown
03:14 51.8 °F 48.2 °F 30.2 in NNE 1.2 mph 2.5 mph 89% 0 in 0.00 W/m2 unknown
03:19 51.8 °F 48.2 °F 30.2 in NE 1.9 mph 3.1 mph 86% 0 in 0.00 W/m2 unknown
03:24 51.8 °F 48.2 °F 30.2 in NE 1.9 mph 3.7 mph 86% 0 in 0.00 W/m2 unknown
03:29 51.8 °F 48.2 °F 30.2 in NE 1.2 mph 3.1 mph 86% 0 in 0.00 W/m2 unknown
03:34 51.8 °F 48.2 °F 30.2 in ENE 1.9 mph 2.5 mph 86% 0 in 0.00 W/m2 unknown
03:39 51.8 °F 48.2 °F 30.2 in NE 1.2 mph 2.5 mph 86% 0 in 0.00 W/m2 unknown
03:44 51.8 °F 48.2 °F 30.2 in ENE 1.2 mph 2.5 mph 87% 0 in 0.00 W/m2 unknown
03:49 51.8 °F 48.2 °F 30.2 in ENE 1.2 mph 2.5 mph 87% 0 in 0.00 W/m2 unknown
03:54 50 °F 46.4 °F 30.2 in NE 1.9 mph 3.7 mph 88% 0 in 0.00 W/m2 unknown
03:59 50 °F 48.2 °F 30.2 in NE 1.2 mph 3.1 mph 88% 0 in 0.00 W/m2 unknown
04:04 51.8 °F 48.2 °F 30.2 in NE 1.2 mph 2.5 mph 88% 0 in 0.00 W/m2 unknown
04:09 51.8 °F 48.2 °F 30.1 in NE 1.2 mph 2.5 mph 88% 0 in 0.00 W/m2 unknown
04:14 51.8 °F 48.2 °F 30.1 in NE 1.2 mph 1.9 mph 88% 0 in 0.00 W/m2 unknown
04:19 51.8 °F 48.2 °F 30.2 in NE 1.2 mph 2.5 mph 88% 0 in 0.00 W/m2 unknown
04:24 51.8 °F 48.2 °F 30.2 in NE 1.9 mph 2.5 mph 87% 0 in 0.00 W/m2 unknown
04:29 51.8 °F 48.2 °F 30.1 in NE 1.2 mph 2.5 mph 87% 0 in 0.00 W/m2 unknown
04:34 51.8 °F 48.2 °F 30.1 in NE 1.2 mph 2.5 mph 87% 0 in 0.00 W/m2 unknown
04:39 51.8 °F 48.2 °F 30.1 in NE 1.2 mph 2.5 mph 87% 0 in 0.00 W/m2 unknown
04:44 51.8 °F 46.4 °F 30.1 in NE 1.2 mph 2.5 mph 87% 0 in 0.00 W/m2 unknown
04:49 50 °F 46.4 °F 30.1 in Calm   1.2 mph 87% 0 in 0.00 W/m2 unknown
04:54 50 °F 46.4 °F 30.1 in Calm     88% 0 in 0.00 W/m2 unknown
04:59 50 °F 46.4 °F 30.1 in Calm     88% 0 in 0.00 W/m2 unknown
05:04 50 °F 46.4 °F 30.1 in Calm     88% 0 in 0.00 W/m2 unknown
05:09 50 °F 46.4 °F 30.1 in Calm     89% 0 in 0.00 W/m2 unknown
05:14 50 °F 46.4 °F 30.1 in NE 1.2 mph 2.5 mph 89% 0 in 0.00 W/m2 unknown
05:19 50 °F 46.4 °F 30.1 in NE 1.2 mph 2.5 mph 89% 0 in 0.00 W/m2 unknown
05:24 50 °F 46.4 °F 30.1 in Calm   1.9 mph 89% 0 in 0.00 W/m2 unknown
05:29 50 °F 46.4 °F 30.1 in Calm     89% 0 in 0.00 W/m2 unknown
05:34 48.2 °F 46.4 °F 30.1 in Calm     89% 0 in 0.00 W/m2 unknown
05:39 48.2 °F 46.4 °F 30.1 in Calm     90% 0 in 0.00 W/m2 unknown
05:44 48.2 °F 46.4 °F 30.1 in NE 0.6 mph 1.2 mph 90% 0 in 0.00 W/m2 unknown
05:49 48.2 °F 46.4 °F 30.1 in NE 1.2 mph 2.5 mph 90% 0 in 0.00 W/m2 unknown
05:54 48.2 °F 46.4 °F 30.1 in NE 1.2 mph 2.5 mph 90% 0 in 0.00 W/m2 unknown
05:59 48.2 °F 46.4 °F 30.1 in NE 1.2 mph 2.5 mph 90% 0 in 0.00 W/m2 unknown
06:04 48.2 °F 46.4 °F 30.1 in ENE 1.2 mph 2.5 mph 91% 0 in 0.00 W/m2 unknown
06:09 48.2 °F 46.4 °F 30.1 in East 1.9 mph 2.5 mph 91% 0 in 0.00 W/m2 unknown
06:14 48.2 °F 46.4 °F 30.1 in East 1.2 mph 2.5 mph 91% 0 in 0.00 W/m2 unknown
06:19 48.2 °F 46.4 °F 30.1 in Calm   1.9 mph 91% 0 in 0.00 W/m2 unknown
06:24 48.2 °F 44.6 °F 30.1 in Calm     91% 0 in 0.00 W/m2 unknown
06:29 48.2 °F 44.6 °F 30.1 in North 2.5 mph 3.7 mph 91% 0 in 0.00 W/m2 unknown
06:34 48.2 °F 44.6 °F 30.1 in WNW 3.1 mph 3.7 mph 91% 0 in 0.00 W/m2 unknown
06:39 48.2 °F 44.6 °F 30.1 in Calm   1.2 mph 91% 0 in 0.00 W/m2 unknown
06:44 48.2 °F 44.6 °F 30.1 in Calm   1.2 mph 91% 0 in 0.00 W/m2 unknown
06:49 48.2 °F 44.6 °F 30.1 in Calm     91% 0 in 0.00 W/m2 unknown
06:54 48.2 °F 44.6 °F 30.1 in Calm     91% 0 in 0.00 W/m2 unknown
06:59 48.2 °F 44.6 °F 30.1 in Calm     91% 0 in 0.00 W/m2 unknown
07:04 46.4 °F 44.6 °F 30.1 in West 0.6 mph 1.9 mph 91% 0 in 0.00 W/m2 unknown
07:09 48.2 °F 44.6 °F 30.1 in West 1.9 mph 2.5 mph 91% 0 in 5.00 W/m2 unknown
07:14 48.2 °F 44.6 °F 30.1 in SW 1.9 mph 3.7 mph 91% 0 in 7.00 W/m2 unknown
07:19 48.2 °F 44.6 °F 30.1 in SW 1.9 mph 3.1 mph 91% 0 in 9.00 W/m2 unknown
07:24 48.2 °F 44.6 °F 30.1 in SW 1.2 mph 3.7 mph 91% 0 in 11.00 W/m2 unknown
07:29 48.2 °F 44.6 °F 30.1 in SW 1.9 mph 3.1 mph 91% 0 in 12.00 W/m2 unknown
07:34 48.2 °F 44.6 °F 30.1 in SW 1.9 mph 3.7 mph 91% 0 in 14.00 W/m2 unknown
07:39 46.4 °F 44.6 °F 30.1 in WSW 1.9 mph 3.1 mph 91% 0 in 18.00 W/m2 unknown
07:44 46.4 °F 44.6 °F 30.1 in WSW 1.9 mph 2.5 mph 91% 0 in 23.00 W/m2 unknown
07:49 48.2 °F 44.6 °F 30.1 in WSW 1.9 mph 2.5 mph 91% 0 in 37.00 W/m2 unknown
07:54 48.2 °F 44.6 °F 30.1 in WSW 1.2 mph 2.5 mph 91% 0 in 54.00 W/m2 unknown
07:59 48.2 °F 46.4 °F 30.1 in WSW 1.2 mph 2.5 mph 91% 0 in 54.00 W/m2 unknown
08:04 48.2 °F 46.4 °F 30.1 in WSW 1.2 mph 2.5 mph 91% 0 in 86.00 W/m2 unknown
08:09 50 °F 46.4 °F 30.1 in WSW 1.2 mph 2.5 mph 91% 0 in 91.00 W/m2 unknown
08:14 50 °F 48.2 °F 30.1 in SW 1.2 mph 2.5 mph 91% 0 in 116.00 W/m2 unknown
08:19 51.8 °F 48.2 °F 30.1 in SW 1.9 mph 3.7 mph 90% 0 in 130.00 W/m2 unknown
08:24 51.8 °F 48.2 °F 30.1 in SW 1.2 mph 3.1 mph 90% 0 in 146.00 W/m2 unknown
08:29 51.8 °F 48.2 °F 30.1 in SW 2.5 mph 3.7 mph 89% 0 in 146.00 W/m2 unknown
08:34 53.6 °F 48.2 °F 30.1 in SW 2.5 mph 3.7 mph 88% 0 in 156.00 W/m2 unknown
08:39 53.6 °F 50 °F 30.1 in SW 1.9 mph 3.7 mph 87% 0 in 190.00 W/m2 unknown
08:44 53.6 °F 50 °F 30.1 in SSW 2.5 mph 3.7 mph 87% 0 in 204.00 W/m2 unknown
08:49 53.6 °F 50 °F 30.1 in SW 2.5 mph 3.7 mph 86% 0 in 220.00 W/m2 unknown
08:54 55.4 °F 50 °F 30.1 in SSW 2.5 mph 3.7 mph 86% 0 in 234.00 W/m2 unknown
08:59 55.4 °F 50 °F 30.1 in SW 3.1 mph 3.7 mph 86% 0 in 250.00 W/m2 unknown
09:04 55.4 °F 50 °F 30.1 in SW 3.1 mph 3.7 mph 84% 0 in 264.00 W/m2 unknown
09:09 55.4 °F 50 °F 30.1 in SSW 3.1 mph 5 mph 83% 0 in 276.00 W/m2 unknown
09:14 55.4 °F 50 °F 30.1 in SSW 3.1 mph 5 mph 81% 0 in 288.00 W/m2 unknown
09:19 57.2 °F 50 °F 30.1 in SSW 2.5 mph 3.7 mph 81% 0 in 299.00 W/m2 unknown
09:24 57.2 °F 50 °F 30.1 in South 2.5 mph 3.7 mph 81% 0 in 313.00 W/m2 unknown
09:29 57.2 °F 50 °F 30.1 in South 2.5 mph 3.7 mph 80% 0 in 327.00 W/m2 unknown
09:34 57.2 °F 51.8 °F 30.1 in SSW 2.5 mph 3.7 mph 80% 0 in 339.00 W/m2 unknown
09:39 57.2 °F 50 °F 30.1 in South 1.9 mph 3.7 mph 79% 0 in 352.00 W/m2 unknown
09:44 59 °F 51.8 °F 30.1 in SSW 1.2 mph 3.1 mph 78% 0 in 367.00 W/m2 unknown
09:49 59 °F 51.8 °F 30.1 in SW 1.9 mph 3.7 mph 78% 0 in 380.00 W/m2 unknown
09:54 59 °F 51.8 °F 30.2 in SW 1.2 mph 3.7 mph 77% 0 in 396.00 W/m2 unknown
09:59 59 °F 51.8 °F 30.2 in SW 1.9 mph 3.7 mph 77% 0 in 408.00 W/m2 unknown
10:04 60.8 °F 51.8 °F 30.1 in SW 1.9 mph 3.7 mph 76% 0 in 420.00 W/m2 unknown
10:09 60.8 °F 51.8 °F 30.1 in South 1.2 mph 3.1 mph 75% 0 in 431.00 W/m2 unknown
10:14 60.8 °F 53.6 °F 30.2 in SW 1.9 mph 3.7 mph 75% 0 in 434.00 W/m2 unknown
10:19 60.8 °F 51.8 °F 30.2 in SSW 2.5 mph 3.7 mph 73% 0 in 446.00 W/m2 unknown
10:24 62.6 °F 53.6 °F 30.2 in SE 1.2 mph 3.1 mph 74% 0 in 468.00 W/m2 unknown
10:29 62.6 °F 53.6 °F 30.2 in SSE 1.9 mph 3.1 mph 74% 0 in 482.00 W/m2 unknown
10:34 62.6 °F 51.8 °F 30.2 in WSW 2.5 mph 3.7 mph 70% 0 in 489.00 W/m2 unknown
10:39 62.6 °F 51.8 °F 30.2 in WNW 2.5 mph 3.7 mph 70% 0 in 503.00 W/m2 unknown
10:44 62.6 °F 53.6 °F 30.2 in NNW 1.2 mph 3.1 mph 69% 0 in 510.00 W/m2 unknown
10:49 62.6 °F 51.8 °F 30.2 in SSW 3.1 mph 3.7 mph 68% 0 in 520.00 W/m2 unknown
10:54 64.4 °F 53.6 °F 30.2 in SW 3.1 mph 5 mph 68% 0 in 531.00 W/m2 unknown
10:59 64.4 °F 53.6 °F 30.2 in WNW 0.6 mph 5 mph 69% 0 in 543.00 W/m2 unknown
11:04 64.4 °F 53.6 °F 30.1 in SW 2.5 mph 3.7 mph 65% 0 in 550.00 W/m2 unknown
11:09 64.4 °F 53.6 °F 30.1 in WNW 1.2 mph 3.1 mph 65% 0 in 563.00 W/m2 unknown
11:14 64.4 °F 53.6 °F 30.1 in SW 3.1 mph 5 mph 65% 0 in 570.00 W/m2 unknown
11:19 66.2 °F 53.6 °F 30.1 in WSW 3.1 mph 5 mph 64% 0 in 577.00 W/m2 unknown
11:24 64.4 °F 51.8 °F 30.1 in South 1.2 mph 5 mph 62% 0 in 584.00 W/m2 unknown
11:29 66.2 °F 51.8 °F 30.1 in WSW 1.2 mph 2.5 mph 60% 0 in 601.00 W/m2 unknown
11:34 66.2 °F 51.8 °F 30.1 in WSW 3.1 mph 3.7 mph 60% 0 in 603.00 W/m2 unknown
11:39 66.2 °F 51.8 °F 30.1 in WNW 2.5 mph 3.7 mph 59% 0 in 612.00 W/m2 unknown
11:44 66.2 °F 51.8 °F 30.1 in SW 3.1 mph 6.2 mph 59% 0 in 619.00 W/m2 unknown
11:49 66.2 °F 51.8 °F 30.1 in SW 4.3 mph 6.8 mph 60% 0 in 624.00 W/m2 unknown
11:54 66.2 °F 51.8 °F 30.1 in WSW 5 mph 6.8 mph 59% 0 in 626.00 W/m2 unknown
11:59 68 °F 51.8 °F 30.1 in SW 5 mph 6.8 mph 58% 0 in 636.00 W/m2 unknown
12:04 68 °F 51.8 °F 30.1 in ESE 3.1 mph 6.2 mph 58% 0 in 640.00 W/m2 unknown
12:09 68 °F 51.8 °F 30.1 in WSW 3.1 mph 8.1 mph 58% 0 in 645.00 W/m2 unknown
12:14 68 °F 51.8 °F 30.1 in SSW 6.2 mph 8.1 mph 57% 0 in 650.00 W/m2 unknown
12:19 68 °F 51.8 °F 30.1 in SW 4.3 mph 8.1 mph 58% 0 in 661.00 W/m2 unknown
12:24 68 °F 51.8 °F 30.1 in SW 6.2 mph 8.1 mph 57% 0 in 668.00 W/m2 unknown
12:29 68 °F 51.8 °F 30.1 in South 6.2 mph 8.1 mph 55% 0 in 668.00 W/m2 unknown
12:34 68 °F 51.8 °F 30.1 in SW 4.3 mph 6.8 mph 56% 0 in 673.00 W/m2 unknown
12:39 68 °F 51.8 °F 30.1 in SSW 4.3 mph 6.2 mph 55% 0 in 673.00 W/m2 unknown
12:44 68 °F 51.8 °F 30.1 in SSW 3.7 mph 5.6 mph 56% 0 in 673.00 W/m2 unknown
12:49 68 °F 51.8 °F 30.1 in WSW 5.6 mph 6.8 mph 55% 0 in 677.00 W/m2 unknown
12:54 69.8 °F 51.8 °F 30.1 in SW 6.2 mph 6.8 mph 54% 0 in 686.00 W/m2 unknown
12:59 69.8 °F 51.8 °F 30.1 in SW 5.6 mph 6.8 mph 54% 0 in 686.00 W/m2 unknown
13:04 69.8 °F 50 °F 30.1 in WSW 5.6 mph 6.8 mph 52% 0 in 684.00 W/m2 unknown
13:09 68 °F 51.8 °F 30.1 in West 3.1 mph 6.8 mph 53% 0 in 691.00 W/m2 unknown
13:14 69.8 °F 51.8 °F 30.1 in SSW 4.3 mph 6.8 mph 53% 0 in 696.00 W/m2 unknown
13:19 69.8 °F 51.8 °F 30.1 in SW 5.6 mph 6.8 mph 53% 0 in 693.00 W/m2 unknown
13:24 69.8 °F 50 °F 30.1 in SSW 2.5 mph 6.8 mph 51% 0 in 684.00 W/m2 unknown
13:29 69.8 °F 50 °F 30.1 in East 2.5 mph 5 mph 50% 0 in 686.00 W/m2 unknown
13:34 69.8 °F 50 °F 30.1 in SSW 5.6 mph 9.3 mph 51% 0 in 686.00 W/m2 unknown
13:39 69.8 °F 50 °F 30.1 in West 5.6 mph 8.7 mph 50% 0 in 693.00 W/m2 unknown
13:44 69.8 °F 50 °F 30.1 in SW 5 mph 6.8 mph 49% 0 in 682.00 W/m2 unknown
13:49 69.8 °F 50 °F 30.1 in SSW 3.1 mph 6.8 mph 49% 0 in 691.00 W/m2 unknown
13:54 69.8 °F 50 °F 30.1 in South 3.7 mph 6.2 mph 48% 0 in 700.00 W/m2 unknown
13:59 69.8 °F 50 °F 30.1 in SSE 3.7 mph 6.2 mph 47% 0 in 696.00 W/m2 unknown
14:04 69.8 °F 50 °F 30.1 in SE 2.5 mph 5 mph 50% 0 in 686.00 W/m2 unknown
14:09 69.8 °F 50 °F 30.1 in ENE 4.3 mph 6.2 mph 47% 0 in 684.00 W/m2 unknown
14:14 69.8 °F 48.2 °F 30.1 in South 5.6 mph 6.8 mph 47% 0 in 675.00 W/m2 unknown
14:19 69.8 °F 50 °F 30.1 in SSE 3.7 mph 6.8 mph 48% 0 in 675.00 W/m2 unknown
14:24 71.6 °F 50 °F 30.1 in WSW 1.9 mph 5 mph 49% 0 in 670.00 W/m2 unknown
14:29 71.6 °F 50 °F 30.1 in SW 3.1 mph 6.2 mph 48% 0 in 668.00 W/m2 unknown
14:34 71.6 °F 50 °F 30.1 in ESE 5 mph 6.8 mph 48% 0 in 656.00 W/m2 unknown
14:39 69.8 °F 50 °F 30.1 in SSE 5 mph 6.8 mph 48% 0 in 654.00 W/m2 unknown
14:44 71.6 °F 50 °F 30.1 in SW 5 mph 6.8 mph 47% 0 in 654.00 W/m2 unknown
14:49 71.6 °F 50 °F 30.1 in SSW 3.7 mph 6.8 mph 46% 0 in 643.00 W/m2 unknown
14:54 71.6 °F 50 °F 30.1 in South 3.1 mph 5 mph 47% 0 in 635.00 W/m2 unknown
14:59 71.6 °F 50 °F 30.1 in West 1.9 mph 5 mph 48% 0 in 631.00 W/m2 unknown
15:04 71.6 °F 48.2 °F 30.1 in South 3.1 mph 5 mph 45% 0 in 622.00 W/m2 unknown
15:09 71.6 °F 48.2 °F 30.1 in ESE 7.5 mph 9.3 mph 45% 0 in 629.00 W/m2 unknown
15:14 71.6 °F 50 °F 30.1 in East 6.8 mph 8.7 mph 47% 0 in 603.00 W/m2 unknown
15:19 71.6 °F 48.2 °F 30.1 in ESE 6.2 mph 8.1 mph 46% 0 in 436.00 W/m2 unknown
15:24 69.8 °F 50 °F 30.1 in SE 5 mph 6.8 mph 47% 0 in 508.00 W/m2 unknown
15:29 69.8 °F 50 °F 30.1 in ESE 3.1 mph 6.2 mph 47% 0 in 497.00 W/m2 unknown
15:34 71.6 °F 50 °F 30.1 in SSE 2.5 mph 5 mph 48% 0 in 480.00 W/m2 unknown
15:39 71.6 °F 50 °F 30.1 in South 2.5 mph 3.7 mph 47% 0 in 427.00 W/m2 unknown
15:44 71.6 °F 50 °F 30.1 in East 3.1 mph 5 mph 48% 0 in 399.00 W/m2 unknown
15:49 69.8 °F 50 °F 30.1 in ESE 5 mph 6.8 mph 47% 0 in 350.00 W/m2 unknown
15:54 69.8 °F 50 °F 30.1 in East 4.3 mph 6.8 mph 48% 0 in 469.00 W/m2 unknown
15:59 71.6 °F 50 °F 30.1 in East 3.1 mph 6.8 mph 48% 0 in 473.00 W/m2 unknown
16:04 71.6 °F 50 °F 30.1 in ESE 4.3 mph 5 mph 47% 0 in 443.00 W/m2 unknown
16:09 71.6 °F 48.2 °F 30.1 in ESE 5 mph 5 mph 46% 0 in 411.00 W/m2 unknown
16:14 71.6 °F 48.2 °F 30.1 in East 4.3 mph 5 mph 46% 0 in 399.00 W/m2 unknown
16:19 69.8 °F 50 °F 30.1 in SE 1.9 mph 5 mph 47% 0 in 374.00 W/m2 unknown
16:24 69.8 °F 50 °F 30.1 in East 3.1 mph 6.2 mph 47% 0 in 374.00 W/m2 unknown
16:29 69.8 °F 50 °F 30.1 in East 5 mph 6.2 mph 48% 0 in 341.00 W/m2 unknown
16:34 69.8 °F 48.2 °F 30.1 in ENE 3.7 mph 6.2 mph 46% 0 in 346.00 W/m2 unknown
16:39 69.8 °F 48.2 °F 30.1 in ENE 3.7 mph 5 mph 46% 0 in 329.00 W/m2 unknown
16:44 69.8 °F 48.2 °F 30.1 in ESE 3.1 mph 5 mph 46% 0 in 336.00 W/m2 unknown
16:49 69.8 °F 48.2 °F 30.1 in East 3.1 mph 5 mph 46% 0 in 323.00 W/m2 unknown
16:54 69.8 °F 50 °F 30.1 in East 3.1 mph 3.7 mph 48% 0 in 265.00 W/m2 unknown
16:59 69.8 °F 48.2 °F 30.1 in ENE 3.1 mph 5 mph 46% 0 in 230.00 W/m2 unknown
17:04 69.8 °F 50 °F 30.1 in ENE 3.1 mph 5 mph 49% 0 in 288.00 W/m2 unknown
17:09 69.8 °F 50 °F 30.1 in ENE 3.1 mph 5 mph 49% 0 in 271.00 W/m2 unknown
17:14 69.8 °F 50 °F 30.1 in East 3.1 mph 5 mph 48% 0 in 309.00 W/m2 unknown
17:19 69.8 °F 50 °F 30.1 in East 3.1 mph 5 mph 49% 0 in 309.00 W/m2 unknown
17:24 69.8 °F 50 °F 30.1 in East 2.5 mph 5 mph 47% 0 in 271.00 W/m2 unknown
17:29 69.8 °F 50 °F 30.1 in East 2.5 mph 3.7 mph 48% 0 in 292.00 W/m2 unknown
17:34 69.8 °F 50 °F 30.1 in ESE 3.7 mph 5 mph 48% 0 in 285.00 W/m2 unknown
17:39 69.8 °F 50 °F 30.1 in ESE 3.7 mph 5 mph 50% 0 in 246.00 W/m2 unknown
17:44 69.8 °F 50 °F 30.1 in ESE 3.1 mph 5 mph 50% 0 in 218.00 W/m2 unknown
17:49 69.8 °F 50 °F 30 in East 3.1 mph 3.7 mph 50% 0 in 158.00 W/m2 unknown
17:54 69.8 °F 50 °F 30 in East 2.5 mph 5 mph 52% 0 in 109.00 W/m2 unknown
17:59 68 °F 50 °F 30 in East 3.1 mph 5 mph 52% 0 in 141.00 W/m2 unknown
18:04 68 °F 50 °F 30 in East 3.1 mph 5 mph 53% 0 in 148.00 W/m2 unknown
18:09 68 °F 50 °F 30 in East 3.1 mph 5 mph 53% 0 in 120.00 W/m2 unknown
18:14 68 °F 50 °F 30 in East 2.5 mph 5 mph 53% 0 in 95.00 W/m2 unknown
18:19 68 °F 50 °F 30 in East 2.5 mph 3.7 mph 54% 0 in 88.00 W/m2 unknown
18:24 68 °F 51.8 °F 30 in East 2.5 mph 3.7 mph 55% 0 in 81.00 W/m2 unknown
18:29 68 °F 50 °F 30 in East 2.5 mph 3.7 mph 54% 0 in 62.00 W/m2 unknown
18:34 68 °F 50 °F 30 in East 2.5 mph 3.7 mph 55% 0 in 53.00 W/m2 unknown
18:39 66.2 °F 50 °F 30 in East 2.5 mph 3.7 mph 55% 0 in 46.00 W/m2 unknown
18:44 66.2 °F 50 °F 30 in East 1.9 mph 3.7 mph 58% 0 in 42.00 W/m2 unknown
18:49 66.2 °F 51.8 °F 30 in East 1.9 mph 3.7 mph 59% 0 in 28.00 W/m2 unknown
18:54 66.2 °F 50 °F 30 in East 1.9 mph 3.1 mph 59% 0 in 21.00 W/m2 unknown
18:59 66.2 °F 51.8 °F 30 in East 1.9 mph 2.5 mph 60% 0 in 14.00 W/m2 unknown
19:04 64.4 °F 51.8 °F 30 in ESE 1.9 mph 2.5 mph 62% 0 in 11.00 W/m2 unknown
19:09 64.4 °F 51.8 °F 30 in ESE 1.2 mph 2.5 mph 62% 0 in 7.00 W/m2 unknown
19:14 64.4 °F 51.8 °F 30 in ESE 1.2 mph 2.5 mph 62% 0 in 0.00 W/m2 unknown
19:19 64.4 °F 51.8 °F 30 in ESE 1.9 mph 2.5 mph 63% 0 in 0.00 W/m2 unknown
19:24 64.4 °F 51.8 °F 30 in ESE 1.2 mph 2.5 mph 64% 0 in 0.00 W/m2 unknown
19:29 62.6 °F 50 °F 30 in ESE 1.2 mph 2.5 mph 63% 0 in 0.00 W/m2 unknown
19:34 62.6 °F 51.8 °F 30 in Calm   1.9 mph 66% 0 in 0.00 W/m2 unknown
19:39 62.6 °F 51.8 °F 30 in Calm     66% 0 in 0.00 W/m2 unknown
19:44 62.6 °F 51.8 °F 30 in Calm     67% 0 in 0.00 W/m2 unknown
19:49 62.6 °F 50 °F 30 in Calm     65% 0 in 0.00 W/m2 unknown
19:54 62.6 °F 48.2 °F 30 in Calm     63% 0 in 0.00 W/m2 unknown
19:59 62.6 °F 50 °F 30 in ESE 1.2 mph 1.9 mph 64% 0 in 0.00 W/m2 unknown
20:04 62.6 °F 50 °F 30.1 in ESE 1.2 mph 2.5 mph 68% 0 in 0.00 W/m2 unknown
20:09 60.8 °F 50 °F 30.1 in ENE 1.9 mph 2.5 mph 68% 0 in 0.00 W/m2 unknown
20:14 60.8 °F 50 °F 30.1 in ENE 1.2 mph 2.5 mph 65% 0 in 0.00 W/m2 unknown
20:19 62.6 °F 50 °F 30.1 in Calm   1.9 mph 66% 0 in 0.00 W/m2 unknown
20:24 62.6 °F 50 °F 30.1 in Calm     65% 0 in 0.00 W/m2 unknown
20:29 62.6 °F 50 °F 30.1 in Calm     66% 0 in 0.00 W/m2 unknown
20:34 62.6 °F 50 °F 30.1 in Calm     66% 0 in 0.00 W/m2 unknown
20:39 62.6 °F 51.8 °F 30.1 in Calm     66% 0 in 0.00 W/m2 unknown
20:44 62.6 °F 51.8 °F 30.1 in East 1.2 mph 2.5 mph 67% 0 in 0.00 W/m2 unknown
20:49 62.6 °F 51.8 °F 30.1 in East 1.2 mph 2.5 mph 67% 0 in 0.00 W/m2 unknown
20:54 62.6 °F 50 °F 30.1 in East 1.2 mph 2.5 mph 67% 0 in 0.00 W/m2 unknown
20:59 62.6 °F 50 °F 30.1 in East 0.6 mph 1.9 mph 66% 0 in 0.00 W/m2 unknown
21:04 62.6 °F 50 °F 30.1 in East 1.2 mph 2.5 mph 66% 0 in 0.00 W/m2 unknown
21:09 60.8 °F 50 °F 30.1 in East 1.2 mph 2.5 mph 67% 0 in 0.00 W/m2 unknown
21:14 60.8 °F 50 °F 30.1 in East 1.2 mph 1.9 mph 67% 0 in 0.00 W/m2 unknown
21:19 60.8 °F 50 °F 30.1 in East 1.2 mph 2.5 mph 68% 0 in 0.00 W/m2 unknown
21:24 60.8 °F 50 °F 30.1 in East 1.2 mph 1.9 mph 68% 0 in 0.00 W/m2 unknown
21:29 60.8 °F 51.8 °F 30.1 in East 1.9 mph 2.5 mph 71% 0 in 0.00 W/m2 unknown
21:34 60.8 °F 51.8 °F 30.1 in ENE 2.5 mph 3.7 mph 71% 0 in 0.00 W/m2 unknown
21:39 60.8 °F 51.8 °F 30.1 in ENE 1.9 mph 3.1 mph 72% 0 in 0.00 W/m2 unknown
21:44 60.8 °F 51.8 °F 30.1 in ENE 1.2 mph 1.9 mph 72% 0 in 0.00 W/m2 unknown
21:49 60.8 °F 51.8 °F 30.1 in ENE 1.2 mph 1.2 mph 72% 0 in 0.00 W/m2 unknown
21:54 60.8 °F 51.8 °F 30.1 in ENE 1.2 mph 1.9 mph 73% 0 in 0.00 W/m2 unknown
21:59 60.8 °F 51.8 °F 30.1 in ENE 1.2 mph 2.5 mph 73% 0 in 0.00 W/m2 unknown
22:04 60.8 °F 51.8 °F 30.1 in Calm   1.9 mph 74% 0 in 0.00 W/m2 unknown
22:09 60.8 °F 51.8 °F 30.1 in ESE 3.7 mph 3.7 mph 74% 0 in 0.00 W/m2 unknown
22:14 60.8 °F 51.8 °F 30.1 in ESE 4.3 mph 6.2 mph 74% 0 in 0.00 W/m2 unknown
22:19 60.8 °F 51.8 °F 30.1 in ESE 3.1 mph 6.2 mph 72% 0 in 0.00 W/m2 unknown
22:24 60.8 °F 51.8 °F 30.1 in ESE 2.5 mph 5 mph 73% 0 in 0.00 W/m2 unknown
22:29 60.8 °F 51.8 °F 30.1 in ESE 3.1 mph 3.7 mph 74% 0 in 0.00 W/m2 unknown
22:34 60.8 °F 51.8 °F 30.1 in ESE 2.5 mph 3.7 mph 74% 0 in 0.00 W/m2 unknown
22:39 60.8 °F 51.8 °F 30.1 in ESE 3.1 mph 3.7 mph 74% 0 in 0.00 W/m2 unknown
22:44 60.8 °F 51.8 °F 30.1 in SE 2.5 mph 3.7 mph 73% 0 in 0.00 W/m2 unknown
22:49 60.8 °F 51.8 °F 30.1 in SE 3.1 mph 3.7 mph 72% 0 in 0.00 W/m2 unknown
22:54 60.8 °F 51.8 °F 30.1 in SE 2.5 mph 3.7 mph 71% 0 in 0.00 W/m2 unknown
22:59 60.8 °F 51.8 °F 30.1 in SE 2.5 mph 3.7 mph 71% 0 in 0.00 W/m2 unknown
23:04 60.8 °F 51.8 °F 30.1 in SE 3.1 mph 3.7 mph 69% 0 in 0.00 W/m2 unknown
23:09 60.8 °F 51.8 °F 30.1 in SE 1.9 mph 3.7 mph 69% 0 in 0.00 W/m2 unknown
23:14 60.8 °F 50 °F 30.1 in SE 2.5 mph 3.7 mph 68% 0 in 0.00 W/m2 unknown
23:19 60.8 °F 51.8 °F 30.1 in ESE 2.5 mph 3.7 mph 70% 0 in 0.00 W/m2 unknown
23:24 60.8 °F 51.8 °F 30.1 in ESE 2.5 mph 3.7 mph 70% 0 in 0.00 W/m2 unknown
23:29 60.8 °F 51.8 °F 30.1 in ESE 1.9 mph 3.7 mph 70% 0 in 0.00 W/m2 unknown
23:34 60.8 °F 51.8 °F 30.1 in ESE 1.9 mph 3.7 mph 71% 0 in 0.00 W/m2 unknown
23:39 60.8 °F 51.8 °F 30.1 in ESE 1.9 mph 3.7 mph 71% 0 in 0.00 W/m2 unknown
23:44 60.8 °F 51.8 °F 30.1 in ESE 1.9 mph 3.7 mph 71% 0 in 0.00 W/m2 unknown
23:49 60.8 °F 51.8 °F 30.1 in ESE 2.5 mph 3.7 mph 71% 0 in 0.00 W/m2 unknown
23:54 60.8 °F 51.8 °F 30.1 in ESE 1.9 mph 3.7 mph 71% 0 in 0.00 W/m2 unknown
23:59 60.8 °F 51.8 °F 30.1 in ESE 1.9 mph 3.7 mph 71% 0 in 0.00 W/m2 unknown
Stazione Meteorologica MeteoMincio Rivalta s/M (MN)
Con i complimenti di Weather Underground - 2 mb



METEO PILLOLE
Maggior quantità di pioggia caduta in un ora
Holt (263.11 m), Missouri - USA
il 22 giugno 1947 caddero 305mm.
Share

Non seguire questo link o sarai bannato dal sito!